Location: Unspecified
(43.4680°N, 87.1740°E)
Time: 17:41:02
(UTC+00:00)

ISS - Pass Details

Date: 05 October 2021
Orbit: 417 x 423 km, 51.6° (Epoch: 25 October)

Event Time Altitude Azimuth Distance (km) Brightness Sun altitude
Rises 13:44:30 0° 290° (WNW) 2,365 1.6 -22.3°
Reaches altitude 10° 13:47:04 10° 270° (W) 1,498 0.1 -22.7°
Maximum altitude 13:49:22 17° 227° (SW) 1,127 -1.3 -23.1°
Enters shadow 13:49:56 17° 214° (SW) 1,151 -1.4 -23.2°
